Regional Weather Roundup
Issued by NWS Sioux Falls, SD

Home | Current Version | Previous Version | Text Only | Print | Product List | Glossary On
Versions: 1 2 3 4 5 6 7 8 9 10 11 12 13 14 15 16 17 18 19 20 21 22 23 24 25 26 27 28 29 30 31 32 33 34 35 36 37 38 39 40 41 42 43 44 45 46 47 48 49 50
000
ASUS43 KFSD 251102
RWRFSD

WEATHER ROUNDUP FOR SE SOUTH DAKOTA/SW MINNESOTA/NW IOWA
NATIONAL WEATHER SERVICE SIOUX FALLS SD
500 AM CST SAT FEB 25 2017

NOTE: "FAIR" INDICATES FEW OR NO CLOUDS BELOW 12,000 FEET WITH NO
SIGNIFICANT WEATHER AND OR OBSTRUCTIONS TO VISIBILITY.


SDZ038>040-050-052>070-251200-
SOUTHEAST SOUTH DAKOTA

CITY           SKY/WX    TMP DP  RH WIND       PRES   REMARKS
BROOKINGS      CLEAR     13  11  92 NW5       30.01F WCI   5
CHAMBERLAIN    CLOUDY    21  18  89 SW3       30.06F
HURON          CLOUDY    17  14  88 CALM      30.06F
MADISON        FAIR      14  14 100 NW9       30.02S WCI   2
MITCHELL       CLOUDY    18  14  84 W3        30.07F
SIOUX FALLS    CLEAR     13  12  96 W9        30.04S WCI   1
WINNER         CLOUDY    19  12  74 S6        30.04F WCI  11
YANKTON        CLOUDY    12   9  85 W8        30.09R WCI   1
$$

MNZ071-072-080-081-089-090-097-098-251200-
SOUTHWEST MINNESOTA

CITY           SKY/WX    TMP DP  RH WIND       PRES   REMARKS
FAIRMONT       CLEAR     13   7  77 NW17      29.96S WCI  -4
JACKSON        PTCLDY    14   7  73 NW16      29.97S WCI  -2
LUVERNE        CLEAR     16  12  86 NW9       30.03S WCI   4
MARSHALL       CLEAR     16  12  84 NW14      30.02S WCI   2
MONTEVIDEO     CLEAR     16  10  79 N10       30.03S WCI   3
PIPESTONE      CLEAR     16  10  79 NW9       30.00S WCI   4
REDWOOD FALLS  CLEAR     17   7  64 NW13      30.00R WCI   4
TRACY          CLEAR     18  13  81 NW15      30.00S WCI   3
WINDOM         CLEAR     16   9  73 NW14      29.98S WCI   1
WORTHINGTON    CLEAR     14   9  80 NW14      29.99F WCI  -1
$$

IAZ001>003-012>014-020>022-031-032-NEZ013-014-SDZ071-251200-
NORTHWEST IOWA

CITY           SKY/WX    TMP DP  RH WIND       PRES   REMARKS
CHEROKEE       CLEAR     16  13  85 NW8G17    30.04R WCI   6
DENISON        CLEAR     16  12  86 NW15      30.03R WCI   1
ESTHERVILLE    CLEAR     12   6  77 NW20      29.97S WCI  -6
LE MARS        CLEAR     14  12  92 NW8       30.08R WCI   3
SHELDON        CLEAR     14  14 100 NW9       30.01S WCI   2
SIOUX CITY     CLOUDY    19  13  77 NW12      30.09R WCI   7
SPENCER        CLEAR     13   7  77 NW9       30.00S WCI   1
STORM LAKE     FOG       14  10  85 NW16      30.01R VSB 1   WCI  -2
$$

ABBREVIATIONS USED IN REMARKS
   TC - TEMPERATURE IN CELSIUS
  WCI - WIND CHILL INDEX
   HX - HEAT INDEX
  VSB - VISIBILITY




USA.gov is the U.S. government's official web portal to all federal, state and local government web resources and services.